Regional Weather Roundup
Issued by NWS Northern Indiana

Home | Current Version | Previous Version | Text Only | Print | Product List | Glossary Off
Versions: 1 2 3 4 5 6 7 8 9 10 11 12 13 14 15 16 17 18 19 20 21 22 23 24 25 26 27 28 29 30 31 32 33 34 35 36 37 38 39 40 41 42 43 44 45 46 47 48 49 50

000
ASUS43 KIWX 230100
RWRIWX

KIWX WEATHER ROUNDUP
NATIONAL WEATHER SERVICE NORTHERN INDIANA
900 PM EDT FRI MAY 22 2015

NOTE: "FAIR" INDICATES FEW OR NO CLOUDS BELOW 12,000 FEET WITH NO
SIGNIFICANT WEATHER AND/OR OBSTRUCTIONS TO VISIBILITY.

* THESE STATIONS ARE NOT UNDER NWS QUALITY CONTROL. THEY ALSO MAY NOT
  REPORT WEATHER SUCH AS PRECIPITATION OR FOG.

INZ001>027-230200-
NORTHERN INDIANA

CITY           SKY/WX    TMP DP  RH WIND       PRES   REMARKS
GARY*          CLOUDY    55  37  50 E9        30.27R
SOUTH BEND     MOCLDY    58  34  40 N6        30.30R
ELKHART*       MOCLDY    61  30  31 N3        30.29S
GOSHEN         MOCLDY    59  34  39 N7        30.28R
MONTICELLO*    MOCLDY    64  37  36 NE7       30.24R
WARSAW*        MOCLDY    61  34  36 N7        30.27R
ANGOLA*        CLEAR     61  34  36 NW5       30.27R
FORT WAYNE     MOCLDY    61  43  51 N6        30.26R

$$
INZ028>050-230200-
CENTRAL INDIANA

CITY           SKY/WX    TMP DP  RH WIND       PRES   REMARKS
LAFAYETTE      PTCLDY    64  37  36 NE9       30.22S
KOKOMO*        MOCLDY    66  39  37 N13       30.24R
MUNCIE*        MOCLDY    66  42  41 N5        30.24R
INDIANAPOLIS   MOCLDY    69  42  37 N3        30.22R

$$
MIZ043>046-050>051-056>058-064>065-071>073-077>080-230200-
SOUTHWEST LOWER MICHIGAN

CITY           SKY/WX    TMP DP  RH WIND       PRES   REMARKS
BATTLE CREEK   PTCLDY    57  32  38 W8        30.29R
BENTON HARBOR  MOCLDY    50  37  61 CALM      30.28F
COLDWATER*     PTCLDY    58  28  32 NW5       30.28R
HILLSDALE*     PTCLDY    59  33  36 NW7       30.27R
HOLLAND        MOCLDY    53  36  52 W6        30.30R
GRAND RAPIDS   MOCLDY    59  26  28 NW8       30.28R
KALAMAZOO      PTCLDY    57  30  35 NW7       30.29R
STURGIS*       PTCLDY    57  30  35 NW5       30.28R
THREE RIVERS*  FAIR      57  34  43 NW5       30.29R

$$
OHZ001>008-015>018-024>025-230200-
NORTHWEST OHIO

CITY           SKY/WX    TMP DP  RH WIND       PRES   REMARKS
DEFIANCE       PTCLDY    62  37  39 CALM      30.25R
FINDLAY        PTCLDY    65  30  27 NW3       30.25R
TOLEDO EXPRESS PTCLDY    59  33  37 CALM      30.25R
TOLEDO METCALF PTCLDY    59  36  42 E7        30.26R
LIMA           PTCLDY    61  38  42 N5        30.25R

$$
AND FOR LAKE MICHIGAN COASTAL AND OPEN LAKE BUOY OBSERVATIONS

STATION/POSITION TEMP    WIND        PRES    VSBY  WAVE
                 AIR SEA DIR/SP/G                  HT/PER
                 (F)     (DEG/KT/KT) (MB)    (MI)  (FT/S)
CALUMET HARBOR    51      50/  8/ 10   N/A
MICHIGAN CITY     52      30/ 11/ 12   N/A
BURNS HARBOR      54      70/ 13/ 16 1025.1R
SAINT JOSEPH      56      CALM  / 10 1026.1R
SOUTH LAKE BUOY   42 38  140/  6/  6 1026.7R         0
4 MI NW BRIDGMAN  54 54   90/  8/  8   N/A           2/ 3
MICHIGAN CITY     52 51   80/ 12/ 16   N/A           2/ 4

$$
&&


USA.gov is the U.S. government's official web portal to all federal, state and local government web resources and services.